Telfer, Australia

12:05 PM AWST on December 03, 2016 (GMT +0800)
Telfer

Weather History for YTEF - October, 2013

Change the Weather History Date:

Wednesday, October 2, 2013

  Actual Average Record
Temperature  
Mean Temperature 83 °F -  
Max Temperature 99 °F - - ()
Min Temperature 67 °F - - ()
Cooling Degree Days 18    
Growing Degree Days 33 (Base 50)    
Moisture  
Dew Point 33 °F    
Average Humidity 15    
Maximum Humidity 31    
Minimum Humidity 4    
Precipitation  
Precipitation 0.00 in - - ()
Sea Level Pressure  
Sea Level Pressure 30.01 in    
Wind  
Wind Speed 12 mph ()    
Max Wind Speed 20 mph    
Max Gust Speed -    
T = Trace of Precipitation, MM = Missing Value Source: Averaged Metar Reports

Daily Weather History Graph

Daily Weather History Graph

Search for Another Location

Airport or City:

Trip Planner

Search our weather history database for the weather conditions in past years. The results will help you decide how hot, cold, wet, or windy it might be!

Date:

Astronomy

Oct. 02, 2013 Rise Set
Actual Time 5:31 AM AWST 5:49 PM AWST
Civil Twilight 5:09 AM AWST 6:12 PM AWST
Nautical Twilight 4:43 AM AWST 6:38 PM AWST
Astronomical Twilight 4:16 AM AWST 7:04 PM AWST
Moon 3:22 AM AWST (10/2) 3:24 PM AWST (10/2)
Length of Visible Light 13h 03m
Length of Day
12h 18m
Waning Crescent, 9% of the Moon is Illuminated
Oct 2
Waning Crescent
Oct 5
New
Oct 12
First Quarter
Oct 19
Full
Oct 27
Last Quarter

Hourly Weather History & Observations

Time (AWST) Temp. Dew Point Humidity Pressure Visibility Wind Dir Wind Speed Gust Speed Precip Events Conditions
12:00 AM 76 °F 39 °F 16% 29.96 in - SSE 11.5 mph - -  
12:00 AM 77.0 °F 39.2 °F 26% 30.01 in - SSE 11.5 mph - N/A   Unknown
1:00 AM 73.4 °F 37.4 °F 27% 29.98 in - SSE 10.4 mph - N/A   Unknown
2:00 AM 72 °F 37 °F 17% 29.94 in - SE 11.5 mph - -  
2:00 AM 71.6 °F 37.4 °F 29% 29.98 in - SE 11.5 mph - N/A   Unknown
3:00 AM 71 °F 37 °F 18% 29.94 in - SSE 13.8 mph - -  
3:00 AM 71.6 °F 37.4 °F 29% 29.98 in - SSE 13.8 mph - N/A   Unknown
4:00 AM 69.8 °F 37.4 °F 31% 30.01 in - SSE 15.0 mph - N/A   Unknown
5:00 AM 68 °F 36 °F 20% 29.98 in - SSE 13.8 mph - -  
5:00 AM 68.0 °F 35.6 °F 30% 30.04 in - SSE 13.8 mph - N/A   Unknown
6:00 AM 69 °F 36 °F 19% 30.01 in - SSE 15.0 mph - -  
6:00 AM 69.8 °F 35.6 °F 28% 30.04 in - SSE 15.0 mph - N/A   Unknown
7:00 AM 71.6 °F 35.6 °F 27% 30.06 in - SE 15.0 mph - N/A   Unknown
8:00 AM 79 °F 36 °F 12% 30.05 in - SE 16.1 mph - -  
8:00 AM 78.8 °F 35.6 °F 21% 30.09 in - SE 16.1 mph - N/A   Unknown
9:00 AM 84 °F 33 °F 8% 30.06 in - SE 18.4 mph - -  
9:00 AM 84.2 °F 33.8 °F 16% 30.09 in - SE 18.4 mph - N/A   Unknown
10:00 AM 89.6 °F 33.8 °F 14% 30.09 in - SE 17.3 mph - N/A   Unknown
11:00 AM 94 °F 31 °F 5% 30.02 in - SE 17.3 mph - -  
11:00 AM 93.2 °F 32.0 °F 11% 30.06 in - SE 17.3 mph - N/A   Unknown
12:00 PM 96 °F 33 °F 5% 30.00 in - SSE 19.6 mph - -  
12:00 PM 95.0 °F 33.8 °F 12% 30.04 in - SSE 19.6 mph - N/A   Unknown
1:00 PM 98.6 °F 30.2 °F 9% 30.01 in - ESE 16.1 mph - N/A   Unknown
2:00 PM 96 °F 28 °F 4% 29.94 in - South 12.7 mph - -  
2:00 PM 96.8 °F 28.4 °F 9% 29.98 in - South 12.7 mph - N/A   Unknown
3:00 PM 98 °F 27 °F 4% 29.94 in - SSE 15.0 mph - -  
3:00 PM 98.6 °F 26.6 °F 8% 29.98 in - SSE 15.0 mph - N/A   Unknown
4:00 PM 96.8 °F 28.4 °F 9% 29.98 in - SSE 13.8 mph - N/A   Unknown
5:00 PM 95 °F 30 °F 4% 29.94 in - SSE 13.8 mph - -  
5:00 PM 95.0 °F 30.2 °F 10% 29.98 in - SSE 13.8 mph - N/A   Unknown
6:00 PM 90 °F 31 °F 6% 29.97 in - SSE 12.7 mph - -  
6:00 PM 89.6 °F 30.2 °F 12% 30.01 in - SSE 12.7 mph - N/A   Unknown
7:00 PM 86.0 °F 33.8 °F 15% 30.04 in - SSE 10.4 mph - N/A   Unknown
8:00 PM 82 °F 35 °F 10% 30.01 in - SE 10.4 mph - -  
8:00 PM 82.4 °F 35.6 °F 19% 30.06 in - SE 10.4 mph - N/A   Unknown
9:00 PM 82 °F 33 °F 9% 30.03 in - SSE 11.5 mph - -  
9:00 PM 82.4 °F 32.0 °F 16% 30.06 in - SSE 11.5 mph - N/A   Unknown
10:00 PM 80.6 °F 28.4 °F 15% 30.06 in - SSE 10.4 mph - N/A   Unknown
11:00 PM 77 °F 26 °F 7% 30.02 in - SSE 10.4 mph - -  
11:00 PM 77.0 °F 26.6 °F 16% 30.06 in - SSE 10.4 mph - N/A   Unknown